Le Mars, IA

9:56 AM CDT on June 29, 2017 (GMT -0500)
Le Mars Municipal

Weather History for KLRJ - January, 2014

Change the Weather History Date:

Thursday, January 23, 2014

  Actual Average Record
Temperature  
Mean Temperature 2 °F -  
Max Temperature 12 °F 32 °F 59 °F (1981)
Min Temperature -9 °F 9 °F -16 °F (2011)
Degree Days  
Heating Degree Days 64    
Moisture  
Dew Point -9 °F    
Average Humidity 66    
Maximum Humidity 77    
Minimum Humidity 48    
Precipitation  
Precipitation 0.00 in - - ()
Sea Level Pressure  
Sea Level Pressure 30.65 in    
Wind  
Wind Speed 10 mph (WNW)    
Max Wind Speed 16 mph    
Max Gust Speed 21 mph    
Visibility 10 miles    
Events      
Averages and records for this station are not official NWS values.
T = Trace of Precipitation, MM = Missing Value Source: NWS Daily Summary

Daily Weather History Graph

Daily Weather History Graph

Search for Another Location

Airport or City:

Trip Planner

Search our weather history database for the weather conditions in past years. The results will help you decide how hot, cold, wet, or windy it might be!

Date:

Astronomy

Jan. 23, 2014 Rise Set
Actual Time 7:47 AM CST 5:26 PM CST
Civil Twilight 7:16 AM CST 5:56 PM CST
Nautical Twilight 6:42 AM CST 6:31 PM CST
Astronomical Twilight 6:08 AM CST 7:04 PM CST
Moon 12:09 AM CST (1/23) 11:12 AM CST (1/23)
Length of Visible Light 10h 40m
Length of Day
9h 38m
Waning Gibbous, 55% of the Moon is Illuminated
Jan 23
Waning Gibbous
Jan 23
Last Quarter
Jan 30
New
Feb 6
First Quarter
Feb 14
Full

Hourly Weather History & Observations

Time (CST) Temp. Windchill Dew Point Humidity Pressure Visibility Wind Dir Wind Speed Gust Speed Precip Events Conditions
12:15 AM -5.8 °F -27.5 °F -13.0 °F 71% 30.62 in 10.0 mi NNW 16.1 mph - N/A   Clear
12:35 AM -5.8 °F -26.0 °F -13.0 °F 71% 30.62 in 10.0 mi NNW 13.8 mph - N/A   Partly Cloudy
12:55 AM -5.8 °F -23.4 °F -13.0 °F 71% 30.63 in 10.0 mi NNW 10.4 mph - N/A   Partly Cloudy
1:15 AM -7.6 °F -23.4 °F -13.0 °F 77% 30.63 in 10.0 mi NW 8.1 mph - N/A   Scattered Clouds
1:35 AM -7.6 °F -22.1 °F -13.0 °F 77% 30.64 in 10.0 mi NW 6.9 mph - N/A   Partly Cloudy
1:55 AM -7.6 °F -23.4 °F -13.0 °F 77% 30.64 in 10.0 mi NW 8.1 mph - N/A   Clear
2:15 AM -7.6 °F -23.4 °F -13.0 °F 77% 30.65 in 10.0 mi NNW 8.1 mph - N/A   Partly Cloudy
2:35 AM -7.6 °F -23.4 °F -13.0 °F 77% 30.66 in 10.0 mi NW 8.1 mph - N/A   Partly Cloudy
2:55 AM -7.6 °F -23.4 °F -13.0 °F 77% 30.66 in 10.0 mi NW 8.1 mph - N/A   Clear
3:15 AM -7.6 °F -20.6 °F -14.8 °F 71% 30.67 in 10.0 mi NNW 5.8 mph - N/A   Clear
3:35 AM -7.6 °F - -14.8 °F 71% 30.67 in 10.0 mi Calm Calm - N/A   Clear
3:55 AM -7.6 °F -20.6 °F -14.8 °F 71% 30.67 in 10.0 mi NNW 5.8 mph - N/A   Clear
4:15 AM -7.6 °F -22.1 °F -14.8 °F 71% 30.68 in 10.0 mi NNW 6.9 mph - N/A   Clear
4:35 AM -7.6 °F -25.7 °F -14.8 °F 71% 30.68 in 10.0 mi NW 10.4 mph - N/A   Clear
4:55 AM -7.6 °F -25.7 °F -14.8 °F 71% 30.70 in 10.0 mi NW 10.4 mph - N/A   Clear
5:15 AM -9.4 °F -27.9 °F -14.8 °F 77% 30.71 in 10.0 mi NW 10.4 mph - N/A   Clear
5:35 AM -9.4 °F -26.8 °F -14.8 °F 77% 30.72 in 10.0 mi NW 9.2 mph - N/A   Clear
5:55 AM -9.4 °F -26.8 °F -14.8 °F 77% 30.73 in 10.0 mi NW 9.2 mph - N/A   Clear
6:15 AM -9.4 °F -26.8 °F -14.8 °F 77% 30.73 in 10.0 mi NW 9.2 mph - N/A   Clear
6:35 AM -9.4 °F -27.9 °F -14.8 °F 77% 30.75 in 10.0 mi NW 10.4 mph - N/A   Clear
6:55 AM -9.4 °F -25.6 °F -14.8 °F 77% 30.75 in 10.0 mi NW 8.1 mph - N/A   Clear
7:15 AM -9.4 °F -22.7 °F -14.8 °F 77% 30.76 in 10.0 mi NW 5.8 mph - N/A   Clear
7:35 AM -9.4 °F -22.7 °F -14.8 °F 77% 30.77 in 10.0 mi NW 5.8 mph - N/A   Clear
7:55 AM -9.4 °F -22.7 °F -14.8 °F 77% 30.77 in 10.0 mi Variable 5.8 mph - N/A   Clear
8:15 AM -9.4 °F -22.7 °F -14.8 °F 77% 30.78 in 10.0 mi NW 5.8 mph - N/A   Clear
8:35 AM -7.6 °F -20.6 °F -14.8 °F 71% 30.79 in 10.0 mi NW 5.8 mph - N/A   Clear
8:55 AM -5.8 °F -22.4 °F -13.0 °F 71% 30.79 in 10.0 mi NW 9.2 mph - N/A   Clear
9:15 AM -5.8 °F -24.4 °F -13.0 °F 71% 30.79 in - NW 11.5 mph - N/A   Clear
9:35 AM -5.8 °F -23.4 °F -11.2 °F 77% 30.80 in 10.0 mi NW 10.4 mph 16.1 mph N/A   Clear
9:55 AM -4.0 °F -22.1 °F -11.2 °F 71% 30.80 in 10.0 mi NW 11.5 mph - N/A   Clear
10:15 AM -2.2 °F -20.7 °F -9.4 °F 71% 30.80 in 10.0 mi NW 12.7 mph - N/A   Clear
10:35 AM -2.2 °F -19.9 °F -9.4 °F 71% 30.80 in 10.0 mi NW 11.5 mph 17.3 mph N/A   Partly Cloudy
10:55 AM -0.4 °F -17.6 °F -7.6 °F 72% 30.81 in 10.0 mi NNW 11.5 mph - N/A   Scattered Clouds
11:15 AM -0.4 °F -14.7 °F -7.6 °F 72% 30.80 in 10.0 mi NNW 8.1 mph 13.8 mph N/A   Partly Cloudy
11:35 AM 1.4 °F -13.5 °F -5.8 °F 72% 30.80 in 10.0 mi WNW 9.2 mph - N/A   Partly Cloudy
11:55 AM 1.4 °F -13.5 °F -5.8 °F 72% 30.79 in 10.0 mi NW 9.2 mph - N/A   Partly Cloudy
12:15 PM 3.2 °F -12.2 °F -5.8 °F 66% 30.78 in 10.0 mi NW 10.4 mph - N/A   Partly Cloudy
12:35 PM 5.0 °F -9.1 °F -4.0 °F 66% 30.76 in 10.0 mi WNW 9.2 mph - N/A   Clear
12:55 PM 5.0 °F -10.0 °F -4.0 °F 66% 30.75 in 10.0 mi NW 10.4 mph - N/A   Clear
1:15 PM 6.8 °F -7.8 °F -4.0 °F 61% 30.73 in 10.0 mi NW 10.4 mph 16.1 mph N/A   Clear
1:35 PM 8.6 °F -5.5 °F -2.2 °F 62% 30.73 in 10.0 mi NW 10.4 mph - N/A   Clear
1:55 PM 8.6 °F -4.7 °F -2.2 °F 62% 30.71 in 10.0 mi WNW 9.2 mph 15.0 mph N/A   Clear
2:15 PM 8.6 °F -4.7 °F -2.2 °F 62% 30.70 in 10.0 mi NW 9.2 mph - N/A   Clear
2:35 PM 10.4 °F -3.3 °F -0.4 °F 62% 30.70 in 10.0 mi West 10.4 mph - N/A   Clear
2:55 PM 10.4 °F -1.5 °F -2.2 °F 57% 30.69 in 10.0 mi WNW 8.1 mph 15.0 mph N/A   Clear
3:15 PM 10.4 °F 0.8 °F -2.2 °F 57% 30.68 in 10.0 mi Variable 5.8 mph - N/A   Clear
3:35 PM 10.4 °F -0.4 °F -2.2 °F 57% 30.68 in 10.0 mi WNW 6.9 mph - N/A   Clear
3:55 PM 12.2 °F 4.3 °F -2.2 °F 53% 30.67 in 10.0 mi West 4.6 mph - N/A   Clear
4:15 PM 12.2 °F 1.7 °F -4.0 °F 48% 30.66 in 10.0 mi WSW 6.9 mph - N/A   Clear
4:35 PM 12.2 °F 4.3 °F -4.0 °F 48% 30.65 in 10.0 mi West 4.6 mph - N/A   Clear
4:55 PM 12.2 °F 2.9 °F -4.0 °F 48% 30.64 in 10.0 mi WSW 5.8 mph - N/A   Clear
5:15 PM 10.4 °F 0.8 °F -4.0 °F 52% 30.63 in 10.0 mi SSW 5.8 mph - N/A   Clear
5:35 PM 6.8 °F -4.8 °F -4.0 °F 61% 30.62 in 10.0 mi SSW 6.9 mph - N/A   Clear
5:55 PM 6.8 °F -4.8 °F -4.0 °F 61% 30.60 in 10.0 mi South 6.9 mph - N/A   Clear
6:15 PM 5.0 °F -5.6 °F -5.8 °F 61% 30.60 in 10.0 mi South 5.8 mph - N/A   Clear
6:35 PM 5.0 °F -4.1 °F -5.8 °F 61% 30.59 in 10.0 mi South 4.6 mph - N/A   Clear
6:55 PM 3.2 °F -7.8 °F -5.8 °F 66% 30.57 in 10.0 mi South 5.8 mph - N/A   Clear
7:15 PM 3.2 °F -9.1 °F -5.8 °F 66% 30.56 in 10.0 mi South 6.9 mph - N/A   Clear
7:35 PM 5.0 °F -9.1 °F -5.8 °F 61% 30.55 in 10.0 mi South 9.2 mph - N/A   Clear
7:55 PM 5.0 °F -10.0 °F -5.8 °F 61% 30.53 in 10.0 mi South 10.4 mph - N/A   Clear
8:35 PM 6.8 °F -8.6 °F -5.8 °F 56% 30.49 in 10.0 mi South 11.5 mph - N/A   Clear
8:55 PM 6.8 °F -10.0 °F -5.8 °F 56% 30.47 in 10.0 mi South 13.8 mph 19.6 mph N/A   Clear
9:15 PM 5.0 °F -10.0 °F -5.8 °F 61% 30.45 in 10.0 mi South 10.4 mph - N/A   Clear
9:55 PM 6.8 °F -10.0 °F -5.8 °F 56% 30.40 in 10.0 mi South 13.8 mph - N/A   Clear
10:15 PM 8.6 °F -8.3 °F -5.8 °F 52% 30.39 in 10.0 mi SSW 15.0 mph - N/A   Clear
10:35 PM 6.8 °F -10.0 °F -5.8 °F 56% 30.37 in 10.0 mi South 13.8 mph - N/A   Clear
10:55 PM 8.6 °F -7.7 °F -5.8 °F 52% 30.34 in 10.0 mi South 13.8 mph 20.7 mph N/A   Clear
11:15 PM 8.6 °F -7.7 °F -5.8 °F 52% 30.33 in 10.0 mi South 13.8 mph 19.6 mph N/A   Clear
11:35 PM 8.6 °F -8.9 °F -5.8 °F 52% 30.31 in 10.0 mi South 16.1 mph - N/A   Clear
11:55 PM 8.6 °F -8.9 °F -5.8 °F 52% 30.29 in 10.0 mi South 16.1 mph - N/A   Clear